Simultaneous Nadir Overpasses (SNOs) Predictions

Prediction of SNOs over PacNW region [( 10.00, 139.50) to ( 22.70, 165.60)] between AQUA and NPP Satellites:

Table of predicted SNOs over PacNW region for the next 30.0 days since TLE Epoch: 11/22/2019
Index Date (AQUA) Time (AQUA) AQUA Lat,Lon Date (NPP) Time (NPP) NPP Lat,Lon Distance(km) Time Diff (sec)
1 11/25/2019 03:31:33 22.65, 147.52 11/25/2019 03:28:04 25.21, 145.11 375.91 209
2 11/30/2019 15:59:08 22.63, 147.49 11/30/2019 16:01:45 23.28, 144.56 309.00 157
3 12/08/2019 15:09:39 22.59, 159.85 12/08/2019 15:10:57 23.17, 157.22 277.16 78
4 12/11/2019 03:31:28 22.69, 147.54 12/11/2019 03:27:58 25.44, 145.06 395.60 210
5 12/16/2019 15:59:02 22.62, 147.52 12/16/2019 16:01:36 23.27, 144.57 310.47 154




NCC Satellite Simultaneous Nadir Overpasses (SNOs) Prediction Service
